| time (UTC) | temp C | wind direction | speed KPH | gust KPH | rain 1hr cm | rain 24hr cm | rain mn cm | humidity % | barometer mb |
| 20260509050904 | 7 | 161 | 6.4 | 11.3 | 0.00 | 0.03 | 0.00 | 61 | 1025.6 |
| 20260509050004 | 7 | 158 | 6.4 | 11.3 | 0.00 | 0.03 | 0.00 | 60 | 1025.4 |
| 20260509045404 | 7 | 159 | 6.4 | 11.3 | 0.00 | 0.05 | 0.00 | 61 | 1025.9 |
| 20260509044504 | 6 | 155 | 4.8 | 8.0 | 0.00 | 0.05 | 0.00 | 62 | 1025.6 |
| 20260509043604 | 6 | 166 | 4.8 | 9.7 | 0.00 | 0.05 | 0.00 | 63 | 1025.6 |
| 20260509042703 | 5 | 164 | 4.8 | 8.0 | 0.00 | 0.05 | 0.00 | 64 | 1026.0 |
| 20260509041825 | 4 | 165 | 4.8 | 8.0 | 0.00 | 0.08 | 0.00 | 65 | 1026.0 |
| 20260509040925 | 3 | 147 | 3.2 | 8.0 | 0.00 | 0.08 | 0.00 | 67 | 1025.9 |
| 20260509040025 | 2 | 168 | 4.8 | 9.7 | 0.00 | 0.13 | 0.00 | 69 | 1025.0 |
| 20260509035404 | 2 | 172 | 3.2 | 9.7 | 0.00 | 0.13 | 0.00 | 71 | 1023.6 |
| 20260509034503 | 1 | 151 | 3.2 | 8.0 | 0.00 | 0.13 | 0.00 | 71 | 1026.3 |
| 20260509033624 | 1 | 152 | 3.2 | 6.4 | 0.00 | 0.13 | 0.00 | 71 | 1026.3 |
| 20260509032725 | 0 | 165 | 3.2 | 6.4 | 0.00 | 0.13 | 0.00 | 71 | 1026.2 |
| 20260509031824 | 0 | 163 | 4.8 | 8.0 | 0.00 | 0.13 | 0.00 | 72 | 1026.3 |
| 20260509030903 | 0 | 161 | 4.8 | 11.3 | 0.00 | 0.13 | 0.00 | 74 | 1026.3 |
| 20260509030004 | 0 | 171 | 3.2 | 9.7 | 0.00 | 0.13 | 0.00 | 75 | 1026.2 |
| 20260509025404 | 0 | 173 | 3.2 | 9.7 | 0.00 | 0.13 | 0.00 | 76 | 1026.3 |
| 20260509024503 | -1 | 173 | 1.6 | 9.7 | 0.00 | 0.13 | 0.00 | 76 | 1026.3 |
| 20260509023603 | -1 | 151 | 1.6 | 3.2 | 0.00 | 0.13 | 0.00 | 76 | 1026.4 |
| 20260509022703 | -1 | 151 | 0.0 | 3.2 | 0.00 | 0.13 | 0.00 | 76 | 1026.3 |
| 20260509021803 | -1 | 151 | 0.0 | 3.2 | 0.00 | 0.13 | 0.00 | 77 | 1026.3 |
| 20260509020903 | -1 | 151 | 0.0 | 1.6 | 0.00 | 0.13 | 0.00 | 77 | 1026.3 |
| 20260509020024 | -1 | 151 | 0.0 | 1.6 | 0.00 | 0.13 | 0.00 | 77 | 1026.2 |
| 20260509015403 | -1 | 187 | 1.6 | 6.4 | 0.00 | 0.13 | 0.00 | 77 | 1026.3 |
| 20260509014524 | -1 | 206 | 0.0 | 6.4 | 0.00 | 0.13 | 0.00 | 78 | 1026.4 |
| 20260509013604 | -1 | 200 | 0.0 | 3.2 | 0.00 | 0.13 | 0.00 | 78 | 1026.4 |
| 20260509012724 | -1 | 0 | 0.0 | 0.0 | 0.00 | 0.13 | 0.00 | 78 | 1026.4 |
| 20260509011804 | -1 | 120 | 0.0 | 1.6 | 0.00 | 0.13 | 0.00 | 78 | 1026.4 |
| 20260509010903 | -1 | 50 | 0.0 | 4.8 | 0.00 | 0.13 | 0.00 | 77 | 1026.3 |
| 20260509010004 | -1 | 335 | 0.0 | 4.8 | 0.00 | 0.13 | 0.00 | 77 | 1026.3 |
| 20260509005403 | -1 | 335 | 0.0 | 4.8 | 0.00 | 0.13 | 0.00 | 77 | 1026.3 |
| 20260509004524 | -1 | 335 | 0.0 | 1.6 | 0.00 | 0.13 | 0.00 | 77 | 1026.3 |
| 20260509003604 | -1 | 335 | 0.0 | 3.2 | 0.00 | 0.13 | 0.00 | 77 | 1026.4 |
| 20260509002725 | -1 | 335 | 0.0 | 3.2 | 0.00 | 0.13 | 0.00 | 78 | 1026.3 |
| 20260509001803 | -1 | 335 | 0.0 | 3.2 | 0.00 | 0.13 | 0.00 | 79 | 1026.3 |
| 20260509000904 | -1 | 335 | 1.6 | 4.8 | 0.00 | 0.13 | 0.00 | 78 | 1026.4 |
| 20260509000025 | -1 | 335 | 0.0 | 3.2 | 0.00 | 0.13 | 0.00 | 77 | 1026.4 |
| 20260508235404 | -1 | 0 | 0.0 | 0.0 | 0.00 | 0.13 | 0.00 | 78 | 1026.4 |
| 20260508234504 | 0 | 0 | 0.0 | 0.0 | 0.00 | 0.13 | 0.00 | 76 | 1026.3 |
| 20260508233603 | 0 | 0 | 0.0 | 0.0 | 0.00 | 0.13 | 0.00 | 77 | 1026.3 |
| 20260508232724 | 0 | 0 | 0.0 | 0.0 | 0.00 | 0.13 | 0.00 | 77 | 1026.3 |
| 20260508231803 | 0 | 0 | 0.0 | 0.0 | 0.00 | 0.13 | 0.00 | 76 | 1026.3 |
| 20260508230904 | 0 | 0 | 0.0 | 0.0 | 0.00 | 0.13 | 0.00 | 77 | 1026.3 |
| 20260508230003 | 0 | 0 | 0.0 | 0.0 | 0.00 | 0.13 | 0.00 | 76 | 1026.3 |
| 20260508225404 | 0 | 0 | 0.0 | 0.0 | 0.00 | 0.13 | 0.00 | 76 | 1026.3 |
| 20260508224503 | 0 | 0 | 0.0 | 0.0 | 0.00 | 0.13 | 0.00 | 76 | 1026.3 |
| 20260508223603 | 0 | 0 | 0.0 | 0.0 | 0.00 | 0.13 | 0.00 | 76 | 1026.2 |
| 20260508222724 | 0 | 0 | 0.0 | 0.0 | 0.00 | 0.13 | 0.00 | 76 | 1026.2 |
| 20260508221803 | 0 | 0 | 0.0 | 0.0 | 0.00 | 0.13 | 0.00 | 76 | 1026.3 |
| 20260508220904 | 0 | 0 | 0.0 | 0.0 | 0.00 | 0.13 | 0.00 | 75 | 1026.3 |
| 20260508220003 | 0 | 0 | 0.0 | 0.0 | 0.00 | 0.13 | 0.00 | 75 | 1026.2 |
| 20260508215403 | 0 | 0 | 0.0 | 0.0 | 0.00 | 0.13 | 0.00 | 74 | 1026.2 |
| 20260508214503 | 0 | 0 | 0.0 | 0.0 | 0.00 | 0.13 | 0.00 | 75 | 1026.2 |
| 20260508213603 | 0 | 335 | 0.0 | 3.2 | 0.00 | 0.13 | 0.00 | 75 | 1026.2 |
| 20260508212703 | 0 | 335 | 0.0 | 3.2 | 0.00 | 0.13 | 0.00 | 74 | 1026.1 |
| 20260508211804 | 0 | 335 | 1.6 | 3.2 | 0.00 | 0.13 | 0.00 | 74 | 1026.0 |
| 20260508210903 | 1 | 335 | 1.6 | 4.8 | 0.00 | 0.13 | 0.00 | 73 | 1026.0 |
| 20260508210004 | 1 | 335 | 1.6 | 4.8 | 0.00 | 0.13 | 0.00 | 74 | 1025.9 |
| 20260508205404 | 0 | 335 | 0.0 | 3.2 | 0.00 | 0.13 | 0.13 | 77 | 1025.8 |
| 20260508204503 | 0 | 335 | 0.0 | 1.6 | 0.00 | 0.13 | 0.13 | 76 | 1025.8 |
| 20260508203603 | 1 | 335 | 1.6 | 3.2 | 0.00 | 0.13 | 0.13 | 74 | 1025.8 |
| 20260508202724 | 1 | 335 | 3.2 | 4.8 | 0.00 | 0.13 | 0.13 | 73 | 1025.7 |
| 20260508201803 | 1 | 335 | 4.8 | 4.8 | 0.00 | 0.13 | 0.13 | 72 | 1025.7 |
| 20260508200904 | 1 | 335 | 4.8 | 4.8 | 0.00 | 0.13 | 0.13 | 71 | 1025.6 |
| 20260508200004 | 1 | 335 | 3.2 | 4.8 | 0.00 | 0.15 | 0.13 | 71 | 1025.6 |
| 20260508195403 | 2 | 335 | 3.2 | 4.8 | 0.00 | 0.15 | 0.13 | 71 | 1025.5 |
| 20260508194503 | 2 | 335 | 3.2 | 4.8 | 0.00 | 0.20 | 0.13 | 69 | 1025.3 |
| 20260508193603 | 1 | 335 | 4.8 | 8.0 | 0.00 | 0.25 | 0.13 | 72 | 1025.2 |
| 20260508192703 | 1 | 328 | 6.4 | 8.0 | 0.00 | 0.30 | 0.13 | 73 | 1025.1 |
| 20260508191804 | 2 | 315 | 4.8 | 6.4 | 0.00 | 0.36 | 0.13 | 70 | 1025.0 |
| 20260508190903 | 2 | 315 | 4.8 | 6.4 | 0.00 | 0.38 | 0.13 | 68 | 1025.0 |
| 20260508190025 | 3 | 315 | 4.8 | 6.4 | 0.00 | 0.38 | 0.13 | 64 | 1025.0 |
| 20260508185424 | 3 | 315 | 3.2 | 4.8 | 0.00 | 0.41 | 0.13 | 64 | 1024.9 |
| 20260508184504 | 3 | 315 | 3.2 | 4.8 | 0.00 | 0.41 | 0.13 | 64 | 1024.8 |
| 20260508183604 | 3 | 315 | 3.2 | 4.8 | 0.00 | 0.41 | 0.13 | 64 | 1024.6 |
| 20260508182703 | 3 | 315 | 3.2 | 4.8 | 0.00 | 0.43 | 0.13 | 63 | 1024.6 |
| 20260508181824 | 4 | 315 | 3.2 | 4.8 | 0.00 | 0.43 | 0.13 | 62 | 1024.5 |
| 20260508180904 | 5 | 315 | 4.8 | 4.8 | 0.00 | 0.46 | 0.13 | 60 | 1024.5 |
| 20260508180003 | 6 | 315 | 4.8 | 6.4 | 0.00 | 0.48 | 0.13 | 57 | 1024.5 |
| 20260508175403 | 7 | 315 | 3.2 | 6.4 | 0.00 | 0.51 | 0.13 | 54 | 1024.5 |
| 20260508174503 | 8 | 315 | 3.2 | 8.0 | 0.00 | 0.58 | 0.13 | 47 | 1024.4 |
| 20260508173603 | 9 | 317 | 6.4 | 9.7 | 0.00 | 0.58 | 0.13 | 43 | 1024.3 |
| 20260508172703 | 10 | 326 | 6.4 | 12.9 | 0.00 | 0.58 | 0.13 | 42 | 1024.3 |
| 20260508170903 | 10 | 313 | 8.0 | 14.5 | 0.00 | 0.61 | 0.13 | 40 | 1024.2 |
| 20260508170003 | 10 | 299 | 11.3 | 20.9 | 0.00 | 0.61 | 0.13 | 39 | 1024.2 |
| 20260508165403 | 10 | 308 | 12.9 | 20.9 | 0.00 | 0.61 | 0.13 | 40 | 1024.2 |
| 20260508164503 | 10 | 306 | 11.3 | 17.7 | 0.00 | 0.61 | 0.13 | 36 | 1024.2 |
| 20260508163603 | 11 | 292 | 11.3 | 20.9 | 0.00 | 0.61 | 0.13 | 37 | 1024.0 |
| 20260508162703 | 11 | 298 | 11.3 | 20.9 | 0.00 | 0.61 | 0.13 | 36 | 1023.9 |
| 20260508161803 | 11 | 289 | 11.3 | 20.9 | 0.00 | 0.61 | 0.13 | 35 | 1023.9 |
| 20260508160924 | 11 | 290 | 11.3 | 19.3 | 0.00 | 0.61 | 0.13 | 33 | 1023.8 |
| 20260508160024 | 11 | 292 | 12.9 | 22.5 | 0.00 | 0.61 | 0.13 | 35 | 1023.7 |
| 20260508155425 | 11 | 305 | 12.9 | 25.7 | 0.00 | 0.61 | 0.13 | 36 | 1023.6 |
| 20260508154504 | 11 | 284 | 12.9 | 24.1 | 0.00 | 0.61 | 0.13 | 37 | 1023.5 |
| 20260508153604 | 11 | 292 | 12.9 | 20.9 | 0.00 | 0.61 | 0.13 | 37 | 1023.4 |
| 20260508152704 | 11 | 307 | 14.5 | 24.1 | 0.00 | 0.61 | 0.13 | 36 | 1023.4 |
| 20260508151804 | 11 | 296 | 11.3 | 27.4 | 0.00 | 0.61 | 0.13 | 37 | 1023.3 |
| 20260508150904 | 11 | 291 | 11.3 | 19.3 | 0.00 | 0.61 | 0.13 | 37 | 1023.3 |
| 20260508150005 | 11 | 314 | 9.7 | 19.3 | 0.00 | 0.61 | 0.13 | 41 | 1023.2 |
| 20260508145425 | 11 | 316 | 11.3 | 19.3 | 0.00 | 0.61 | 0.13 | 41 | 1023.3 |
| 20260508144504 | 11 | 292 | 9.7 | 19.3 | 0.00 | 0.61 | 0.13 | 42 | 1023.3 |
| 20260508143604 | 11 | 298 | 9.7 | 19.3 | 0.00 | 0.61 | 0.13 | 42 | 1023.3 |
| 20260508142704 | 11 | 298 | 9.7 | 19.3 | 0.00 | 0.61 | 0.13 | 43 | 1023.3 |
| 20260508141804 | 11 | 289 | 12.9 | 24.1 | 0.00 | 0.61 | 0.13 | 43 | 1023.3 |
| 20260508140904 | 11 | 304 | 6.4 | 22.5 | 0.00 | 0.61 | 0.13 | 42 | 1023.3 |
| 20260508140005 | 11 | 306 | 12.9 | 22.5 | 0.00 | 0.61 | 0.13 | 43 | 1023.2 |
| 20260508134504 | 11 | 315 | 16.1 | 27.4 | 0.00 | 0.61 | 0.13 | 43 | 1023.3 |
| 20260508133604 | 11 | 311 | 12.9 | 22.5 | 0.00 | 0.61 | 0.13 | 43 | 1023.4 |
| 20260508132725 | 10 | 297 | 8.0 | 22.5 | 0.00 | 0.61 | 0.13 | 42 | 1023.4 |
| 20260508131804 | 10 | 291 | 14.5 | 24.1 | 0.00 | 0.61 | 0.13 | 43 | 1023.5 |
| 20260508130904 | 11 | 313 | 11.3 | 24.1 | 0.00 | 0.61 | 0.13 | 43 | 1023.3 |
| 20260508130005 | 11 | 317 | 14.5 | 24.1 | 0.00 | 0.61 | 0.13 | 43 | 1023.3 |
| 20260508125404 | 11 | 301 | 12.9 | 20.9 | 0.00 | 0.61 | 0.13 | 45 | 1023.3 |
| 20260508124504 | 10 | 326 | 8.0 | 20.9 | 0.00 | 0.61 | 0.13 | 47 | 1023.3 |
| 20260508123604 | 10 | 309 | 8.0 | 16.1 | 0.00 | 0.61 | 0.13 | 47 | 1023.4 |
| 20260508122704 | 10 | 293 | 11.3 | 20.9 | 0.00 | 0.61 | 0.13 | 46 | 1023.5 |
| 20260508121804 | 11 | 291 | 6.4 | 20.9 | 0.00 | 0.64 | 0.13 | 48 | 1023.4 |
| 20260508120904 | 11 | 186 | 6.4 | 16.1 | 0.00 | 0.64 | 0.13 | 51 | 1023.4 |
| 20260508120004 | 11 | 184 | 4.8 | 14.5 | 0.00 | 0.66 | 0.13 | 51 | 1023.3 |
| 20260508115404 | 10 | 261 | 4.8 | 14.5 | 0.00 | 0.66 | 0.13 | 49 | 1023.3 |
| 20260508114504 | 10 | 277 | 6.4 | 16.1 | 0.00 | 0.66 | 0.13 | 52 | 1023.4 |
| 20260508113604 | 10 | 277 | 8.0 | 24.1 | 0.00 | 0.66 | 0.13 | 52 | 1023.5 |
| 20260508112704 | 10 | 199 | 6.4 | 16.1 | 0.00 | 0.66 | 0.13 | 56 | 1023.4 |
| 20260508111804 | 10 | 200 | 6.4 | 17.7 | 0.00 | 0.66 | 0.13 | 58 | 1023.6 |
| 20260508110904 | 9 | 198 | 6.4 | 19.3 | 0.00 | 0.66 | 0.13 | 63 | 1023.6 |
| 20260508110004 | 8 | 267 | 9.7 | 24.1 | 0.00 | 0.66 | 0.13 | 60 | 1023.5 |
| 20260508105404 | 9 | 279 | 12.9 | 24.1 | 0.00 | 0.66 | 0.13 | 56 | 1023.5 |
| 20260508104504 | 10 | 321 | 12.9 | 22.5 | 0.00 | 0.66 | 0.13 | 55 | 1023.1 |